Regional Weather Roundup
Issued by NWS

Home | Current Version | Previous Version | Text Only | Print | Product List | Glossary On
Versions: 1 2 3 4 5 6 7 8 9 10 11 12 13 14 15 16 17 18 19 20 21 22 23 24 25 26 27 28 29 30 31 32 33 34 35 36 37 38 39 40 41 42 43 44 45 46 47 48 49 50
000
ASUS43 KLMK 212310
RWRKY
KENTUCKY REGIONAL WEATHER ROUNDUP
NATIONAL WEATHER SERVICE LOUISVILLE KY
600 PM EST SUN JAN 21 2018

NOTE "FAIR" INDICATES FEW OR NO CLOUDS BELOW 12,000 FEET
WITH NO SIGNIFICANT WEATHER AND/OR OBSTRUCTIONS TO VISIBILITY.

KYZ001>023-026-027-061>063-070>075-220000-
WESTERN AND SOUTH CENTRAL KENTUCKY

CITY           SKY/WX    TMP DP  RH WIND       PRES   REMARKS
PADUCAH        MOCLDY    60  52  74 S8        29.95F
HENDERSON      CLOUDY    52  49  89 S6        30.00S
OWENSBORO      MOCLDY    52  49  89 SE6       30.02S
HOPKINSVILLE   MOCLDY    65  49  56 S7        30.00F
BOWLING GREEN  FAIR      60  49  66 S6        30.04F
GLASGOW        MOCLDY    58  51  78 CALM      30.06S
$$

KYZ024-025-028>034-038-045-046-053-220000-
NORTH CENTRAL KENTUCKY

CITY           SKY/WX    TMP DP  RH WIND       PRES   REMARKS
LOUISVILLE/SDF CLOUDY    57  50  77 SE6       30.03F
LOUISVILLE/LOU CLOUDY    57  51  80 S5        30.04F
FORT KNOX      CLOUDY    57  52  82 S7        30.05S
$$

KYZ035>037-039>044-047>052-055>060-089>105-220000-
NORTHEAST KENTUCKY

CITY           SKY/WX    TMP DP  RH WIND       PRES   REMARKS
LEXINGTON      CLOUDY    57  50  77 S8        30.07F
COVINGTON      CLOUDY    53  51  93 S10       30.04S
FRANKFORT      CLOUDY    56  49  77 S5        30.05F
$$

KYZ054-064>069-076>088-106>120-220000-
SOUTHEAST KENTUCKY

CITY           SKY/WX    TMP DP  RH WIND       PRES   REMARKS
JACKSON        CLOUDY    58  45  62 CALM      30.11S
LONDON         CLOUDY    60  43  53 S6        30.12R
SOMERSET       CLOUDY    59  45  58 S3        30.11F
MIDDLESBORO    CLOUDY    55  42  61 CALM      30.17R
MONTICELLO     CLOUDY    61  48  62 E8        30.11F
$$





USA.gov is the U.S. government's official web portal to all federal, state and local government web resources and services.